Tracking 30995 objects as of 5-Jul-2025
HD Live streaming from Space Station
objects crossing your sky now

STARLINK-3199

Track STARLINK-3199 now!
10-day predictions
STARLINK-3199 is classified as:


NORAD ID: 49760
Int'l Code: 2021-115AN
Perigee: 546.0 km
Apogee: 547.7 km
Inclination: 53.2 °
Period: 95.4 minutes
Semi major axis: 6917 km
RCS: Unknown
Launch date: December 2, 2021
Source: United States (US)
Launch site: AIR FORCE EASTERN TEST RANGE (AFETR)
Your satellite tracking list
Your tracking list is empty




NASA's NSSDC Master Catalog

Two Line Element Set (TLE):
1 49760U 21115AN  25186.22889506 -.00000331  00000-0 -27282-5 0  9993
2 49760  53.2161 170.0156 0001217  75.5087 284.6040 15.08840833199439
Source of the keplerian elements: AFSPC